Location: Bou Ouachlou
(32.7770°N, 5.6009°W)
Time: 02:47:07
(UTC+00:00)

Cosmos 2322 Rocket - Pass Details

Date: 07 June 2020
Orbit: 834 x 850 km, 71.0° (Epoch: 06 July)

Event Time Altitude Azimuth Distance (km) Brightness Sun altitude
Exits shadow 01:29:32 32° 83° (E) 1,387 3.4 -32.1°
Drops below altitude 10° 01:33:36 10° 40° (NE) 2,446 5.4 -31.8°
Sets 01:36:13 0° 32° (NNE) 3,383 6.4 -31.6°
